Regional Weather Roundup
Issued by NWS Cleveland, OH

Home | Current Version | Previous Version | Graphics & Text | Print | Product List | Glossary On
Versions: 1 2 3 4 5 6 7 8 9 10 11 12 13 14 15 16 17 18 19 20 21 22 23 24 25 26 27 28 29 30 31 32 33 34 35 36 37 38 39 40 41 42 43 44 45 46 47 48 49 50
000
ASUS41 KCLE 022102
RWRCLE
OHIO REGIONAL WEATHER ROUNDUP
NATIONAL WEATHER SERVICE CLEVELAND, OH
500 PM EDT TUE JUN 02 2015

NOTE: "FAIR" INDICATES FEW OR NO CLOUDS BELOW 12,000 FEET WITH NO
SIGNIFICANT WEATHER AND/OR OBSTRUCTIONS TO VISIBILITY.

OHZ001>008-015>018-024>027-034-035-043-044-022200-
   NORTHWEST OHIO

CITY           SKY/WX    TMP DP  RH WIND       PRES   REMARKS
DEFIANCE       MOSUNNY   68  50  52 E10G23    30.12F
FINDLAY        SUNNY     68  50  52 NE17      30.10F
TOLEDO EXPRESS SUNNY     66  46  48 E13G21    30.13F
TOLEDO EXEC    SUNNY     65  46  50 E14G20    30.14F
LIMA           MOSUNNY   67  53  61 NE12      30.09F
$$

OHZ009>014-019>023-028>033-038-089-022200-
   NORTHEAST OHIO

CITY           SKY/WX    TMP DP  RH WIND       PRES   REMARKS
CLE-HOPKINS    MOSUNNY   64  49  57 N17       30.13F
CLE-LAKEFRONT  MOSUNNY   61  52  72 NE20      30.10F
CUY CO. ARPT   MOSUNNY   66 N/A N/A NE14      30.11F
LORAIN-ELYRIA  SUNNY     63  49  60 NE18      30.12F
ASHTABULA      MOSUNNY   64  50  60 NE8       30.13F
AKRON-CANTON   PTSUNNY   66  52  60 NE9G17    30.10F
WOOSTER        MOSUNNY   66  54  65 E10       30.11F
MANSFIELD      PTSUNNY   66  54  65 N7        30.09F
YOUNGSTOWN     PTSUNNY   67  52  58 E7        30.10F
$$

OHZ042-051>053-060>062-070>072-077>081-022200-
  SOUTHWEST OHIO

CITY           SKY/WX    TMP DP  RH WIND       PRES   REMARKS
CINC-COVINGTON CLOUDY    62  51  67 NE10      30.08F
CINC-LUNKEN    CLOUDY    62  53  72 NE7       30.09F
HAMILTON       CLOUDY    61  52  72 NE7       30.10F
DAYTON         CLOUDY    64  53  67 E7        30.10F
WRIGHT-PAT AFB NOT AVBL
DAYTON GENERAL CLOUDY    62  53  72 E8        30.09F
WILMINGTON     CLOUDY    61  51  70 NE7       30.09F
$$

OHZ036-037-039>041-045>050-054>059-063>069-073>076-082>088-022200-
  CENTRAL AND SOUTHEAST OHIO

CITY           SKY/WX    TMP DP  RH WIND       PRES   REMARKS
COLUMBUS       CLOUDY    65  53  65 NE6       30.08F
OSU AIRPORT    PTSUNNY   67  54  63 NE8       30.08F
BOLTON FIELD   PTSUNNY   66  55  68 E5        30.09F
RICKENBACK AFB NOT AVBL
NEWARK         PTSUNNY   64  52  64 E10       30.09F
MARION         CLOUDY    69  54  58 NE10      30.09F
LANCASTER      CLOUDY    63  53  70 E7        30.09F
ZANESVILLE     NOT AVBL
NEW PHILLY     CLOUDY    64  52  64 E8        30.11F
$$



USA.gov is the U.S. government's official web portal to all federal, state and local government web resources and services.